{"data":{"norad_id":58603,"epoch":"2026-05-25T03:09:35.936352Z","epoch_age_seconds":64433,"freshness":"FRESH","line1":"1 58603U 23200Q   26145.13166593  .00000813  00000+0  39057-4 0  9990","line2":"2 58603  43.0047  96.9687 0001315 265.5862  94.4839 15.27575260135119","mean_motion":15.2757526,"eccentricity":0.0001315,"inclination_deg":43.0047,"raan_deg":96.9687,"arg_perigee_deg":265.5862,"mean_anomaly_deg":94.4839,"bstar":3.9057e-5,"rev_number":13511,"period_min":94.267041219298,"perigee_km":482.16104150351,"apogee_km":483.96553717961,"semimajor_km":6861.2002893416,"source":"CELESTRAK","updated_at":"2026-05-25T13:38:18.701977Z"}}